Location: Baumgarten
(49.0970°N, 12.7493°E)
Time: 02:45:09
(UTC+00:00)

DELTA 2 R/B (1) - Pass Details

Date: 05 July 2020
Orbit: 791 x 802 km, 39.6° (Epoch: 04 August)

Event Time Altitude Azimuth Distance (km) Brightness Sun altitude
Rises 22:23:00 0° 243° (WSW) 3,288 6.6 -17.3°
Reaches altitude 10° 22:25:44 10° 233° (SW) 2,361 5.8 -17.4°
Enters shadow 22:29:56 29° 186° (S) 1,412 4.3 -17.6°
Exits shadow 22:36:21 - 110° (ESE) 2,704 6.1 -17.8°
Sets 22:38:05 0° 104° (ESE) 3,301 6.6 -17.8°
